Theta_e
316 316 316 317 317 318 318 319 319 319 319 320 320 320 320 322 323 323 323 323 324 324 325 325 325 325 324 324 324 324 323 323 323 323 324 324 326 327 326 324 323 324
316 316 317 318 318 318 318 319 320 320 320 320 321 321 323 324 324 324 324 324 324 325 325 326 325 324 324 324 325 325 325 325 326 327 327 326 325 324 325 324 324 324
315 316 316 316 316 316 317 319 320 321 321 322 323 324 324 324 325 324 325 324 324 324 324 325 324 324 324 325 325 326 325 324 322 322 324 325 323 323 324 325 324 323
313 313 313 313 313 314 317 319 320 322 322 322 324 324 324 324 324 324 323 323 323 323 323 323 323 324 324 324 325 325 324 323 320 321 323 324 323 324 325 324 323 322
311 311 311 311 312 314 316 319 320 321 321 321 323 324 323 322 321 321 321 322 322 322 322 322 323 324 324 324 324 322 322 322 322 323 325 325 325 324 322 321 322 323
311 311 311 311 311 313 315 316 317 317 317 318 319 319 318 317 317 318 319 320 320 321 322 323 323 323 323 323 324 324 324 324 325 324 322 323 326 326 324 324 324 324
311 311 311 311 311 311 312 312 313 313 312 312 312 312 312 313 313 314 315 316 318 320 321 321 321 321 321 321 322 322 322 322 323 322 321 321 323 324 325 325 325 325
311 311 311 311 311 311 311 311 311 311 311 311 311 311 311 311 311 311 312 314 317 318 319 320 321 321 321 321 322 322 321 319 319 320 322 324 323 323 323 322 322 324
312 311 311 311 311 311 311 311 311 311 310 311 311 311 311 311 311 311 311 313 314 316 318 321 323 324 325 325 324 323 321 320 320 320 321 323 322 321 322 323 323 323
311 310 311 310 310 311 310 310 311 310 311 311 311 311 311 311 311 311 311 312 313 314 317 321 322 322 323 322 320 320 320 319 320 320 321 321 320 319 321 323 324 324
310 310 310 310 310 310 311 310 311 311 311 311 311 311 311 311 311 311 311 311 312 313 315 315 316 316 317 317 318 319 320 319 318 319 320 321 322 322 323 324 323 323
310 310 310 311 310 310 310 310 311 311 311 311 311 311 311 311 311 311 311 311 311 311 311 311 311 312 314 317 318 319 320 320 320 320 319 320 321 323 323 324 324 323
310 310 310 310 310 310 310 310 310 311 310 310 310 310 311 311 311 311 311 311 310 310 310 310 309 310 312 315 314 314 316 319 321 322 320 319 320 322 323 322 322 322
310 310 310 310 310 310 310 311 310 310 310 310 310 310 310 311 311 311 311 311 311 310 310 310 310 309 311 312 312 312 314 315 317 320 321 321 321 321 321 320 320 321
310 310 310 310 311 311 311 311 310 310 310 310 310 310 310 310 310 311 311 311 311 311 310 310 310 309 309 310 310 312 315 317 318 320 320 319 320 321 320 320 320 320
310 310 311 311 311 311 311 311 310 310 310 310 310 310 310 310 310 311 311 311 311 311 311 310 309 309 309 308 309 311 313 315 316 317 318 318 319 320 320 320 320 320
310 310 311 311 311 311 311 311 311 311 310 310 310 310 310 310 310 310 310 311 311 311 311 311 310 310 309 308 308 309 310 311 312 312 314 315 316 317 317 318 318 319
310 311 311 311 311 311 311 311 311 311 310 310 310 310 310 310 310 310 310 310 311 311 311 311 311 310 310 309 309 308 308 309 311 313 314 315 315 315 316 316 317 319
310 311 311 312 311 311 311 311 311 311 310 310 310 310 310 310 310 310 310 310 311 311 311 310 310 309 309 309 310 311 310 310 312 315 317 318 318 318 318 319 319 320
311 311 311 311 311 311 311 311 311 311 310 310 310 310 310 310 310 310 310 310 310 310 310 310 310 310 310 310 311 312 312 312 313 315 316 317 317 318 319 320 320 319
311 311 311 311 311 311 310 310 310 310 310 310 310 310 310 310 310 310 310 310 310 310 310 310 310 310 310 311 312 311 311 312 313 314 315 315 316 317 318 319 319 318
311 311 311 311 311 310 310 310 310 310 310 310 310 310 310 310 310 309 309 309 309 309 309 309 310 310 309 310 311 311 311 312 312 313 314 314 315 316 315 316 317 317
311 311 311 311 310 310 310 310 310 310 309 310 310 310 309 309 309 309 309 309 309 309 309 309 308 309 309 309 309 310 311 312 312 313 314 315 315 315 315 315 315 315
311 310 310 310 310 310 310 310 310 309 310 310 310 310 309 309 309 309 309 308 308 308 308 308 308 308 308 308 308 308 309 309 310 311 312 313 313 313 313 313 313 313
310 310 310 310 310 310 310 310 310 310 310 310 310 309 309 309 308 308 308 308 308 308 308 308 308 308 308 308 308 308 308 308 308 308 309 309 310 310 310 310 311 311
310 310 310 310 310 310 310 310 310 310 309 309 309 309 308 308 308 308 307 307 307 307 307 307 307 307 307 307 307 307 307 307 307 307 307 307 307 307 308 308 308 308
Wind_Speed
34 36 36 37 37 37 36 35 34 33 33 32 32 32 31 30 28 28 27 27 27 27 27 27 27 27 27 27 27 28 29 30 31 31 32 34 36 36 34 34 33 32
35 35 36 36 36 35 35 34 32 32 31 31 30 30 30 29 28 27 27 27 27 27 27 27 27 26 26 26 26 28 29 31 33 33 33 34 34 34 34 35 34 32
34 34 34 33 33 32 32 31 31 31 30 30 30 29 28 28 27 27 27 27 28 27 27 26 26 25 25 24 25 28 30 32 32 31 32 33 31 32 34 33 33 34
30 29 28 28 29 29 29 29 29 29 29 29 28 27 27 27 28 28 28 28 27 27 26 25 25 24 24 24 25 28 30 30 28 26 29 30 29 32 34 31 32 35
24 23 24 25 27 27 28 28 28 28 28 28 27 26 27 27 28 28 27 26 26 26 25 24 23 23 23 24 25 27 28 27 26 28 31 32 29 30 31 31 33 35
20 22 23 24 25 26 27 27 27 26 25 25 24 25 26 26 26 25 25 26 26 25 25 24 24 24 24 24 25 28 28 26 27 28 30 31 31 33 33 34 36 34
21 22 22 23 24 24 24 23 22 22 21 21 21 22 22 23 23 23 24 24 24 24 24 24 24 24 23 23 23 25 26 28 28 28 28 28 28 30 31 33 35 35
21 21 21 20 20 19 18 18 18 18 18 18 18 19 19 20 21 21 22 22 22 23 23 23 22 22 23 23 23 23 23 25 26 26 26 27 28 29 29 31 34 35
19 18 17 16 15 14 14 14 14 14 15 15 15 16 17 18 19 19 20 21 22 22 21 20 20 21 23 25 25 24 24 24 25 26 24 25 28 29 29 31 34 35
16 14 13 12 12 12 12 12 12 11 12 13 13 14 15 16 17 18 19 21 22 23 22 22 23 24 26 26 25 26 26 24 24 25 24 25 27 27 28 31 32 33
13 12 11 11 10 10 9 9 9 10 10 11 12 13 14 16 17 18 20 21 22 23 24 25 26 27 27 26 25 25 25 24 24 24 25 26 27 27 28 29 28 29
12 12 11 10 9 9 8 8 9 9 10 11 11 12 14 15 17 18 19 19 20 21 23 24 25 25 26 25 25 25 24 24 24 24 26 27 26 26 26 26 26 27
12 11 10 10 9 8 8 8 9 10 10 11 11 12 13 14 15 16 17 17 19 20 21 23 23 23 24 25 25 25 25 26 24 23 24 26 26 25 23 23 25 27
12 11 10 9 9 8 9 9 10 11 11 11 12 12 13 13 13 14 15 15 16 18 19 20 21 21 22 24 23 21 22 22 23 23 24 24 23 22 20 21 23 24
12 12 11 11 10 10 11 11 12 12 12 12 12 12 12 12 12 13 13 13 14 15 16 17 19 19 19 20 20 19 20 20 21 23 23 22 21 21 20 21 22 22
14 13 13 12 12 12 12 12 12 12 12 12 12 12 12 11 11 11 11 12 13 14 15 15 16 17 17 18 18 19 21 22 23 23 23 22 21 20 20 20 21 21
15 15 14 13 13 13 13 12 12 13 12 12 12 12 12 11 11 10 10 11 11 13 14 14 15 15 15 16 17 18 19 20 21 22 22 23 23 24 24 23 22 23
17 16 15 15 14 14 13 13 13 13 13 12 12 12 11 10 10 10 10 10 11 12 13 13 13 13 12 12 13 15 15 15 15 17 18 20 21 22 22 23 23 24
18 18 17 17 15 14 14 14 14 14 14 13 13 12 11 11 10 10 10 10 11 12 12 12 11 11 11 11 12 12 14 14 16 17 17 18 19 19 19 21 23 23
21 21 19 18 16 15 16 16 15 15 15 14 13 12 11 11 10 10 10 10 10 10 10 10 10 10 11 12 13 14 15 16 17 19 19 20 20 19 18 19 20 20
23 22 21 19 18 17 17 17 17 16 16 14 13 12 11 11 10 9 8 8 9 9 8 9 10 11 12 12 14 15 15 16 17 18 19 20 20 20 19 19 19 20
25 24 23 21 19 18 18 18 18 17 16 14 13 12 11 10 9 8 7 7 7 7 7 8 8 9 10 11 13 14 14 15 16 17 18 19 19 20 20 20 20 21
27 26 24 22 21 20 19 19 18 17 15 14 13 12 11 10 8 7 6 6 6 6 7 7 7 7 7 8 10 12 13 14 15 16 17 18 18 19 19 20 20 21
29 27 26 24 23 21 20 19 18 17 15 14 13 12 11 9 8 7 6 5 5 6 6 6 6 5 6 7 8 10 11 13 15 16 18 19 20 21 21 22 22 23
30 29 27 26 24 22 21 19 18 17 16 15 14 13 12 10 9 8 6 5 5 5 5 5 5 5 6 7 7 8 9 11 13 14 16 17 19 21 22 24 25 26
31 31 29 27 24 22 21 20 19 18 17 16 15 14 13 11 10 8 7 6 5 4 3 4 4 4 5 6 6 7 8 8 9 10 11 12 14 15 17 18 19 21
Wind_Direction
257 258 260 262 264 266 268 270 271 273 274 275 276 278 279 280 280 280 279 279 279 279 280 281 281 282 281 280 279 277 276 276 276 275 273 270 268 266 267 268 267 267
257 258 260 262 265 267 268 269 271 272 273 275 276 277 279 280 280 280 280 280 280 281 282 282 281 280 279 279 279 277 277 277 275 274 273 270 268 266 266 267 266 267
256 258 261 264 266 268 269 270 271 271 273 275 276 277 279 281 281 281 280 279 280 280 279 279 278 277 276 275 274 272 272 272 269 267 267 266 265 265 264 265 268 270
257 260 263 265 266 267 268 269 269 271 273 274 275 277 278 278 278 276 275 274 274 274 274 274 274 274 273 272 271 270 272 276 276 273 269 267 267 266 263 262 267 270
259 260 261 262 263 265 266 266 267 269 270 271 272 273 272 271 270 269 268 268 268 269 271 271 269 269 269 270 271 272 274 277 276 273 268 264 263 265 262 260 264 268
254 254 256 257 258 259 260 262 264 265 266 267 267 266 265 264 264 264 264 263 263 264 265 266 268 269 269 269 270 271 272 272 271 270 268 263 261 263 262 262 263 265
248 249 249 250 251 252 255 257 259 260 261 262 262 262 263 263 264 264 263 262 261 261 263 266 268 270 272 273 270 267 268 270 268 267 267 263 261 264 267 269 267 264
241 241 241 243 244 246 248 251 253 255 257 259 260 262 264 265 266 266 265 264 263 263 265 267 270 273 274 277 276 269 270 275 270 265 266 264 262 261 264 268 269 266
236 237 237 237 238 240 243 246 250 252 256 259 261 263 264 265 267 267 267 267 265 264 263 263 267 269 266 268 271 268 269 275 272 266 266 268 269 267 263 266 271 271
231 230 230 231 232 236 239 243 249 253 257 261 263 264 266 268 269 269 269 267 266 262 257 254 255 256 255 257 262 263 265 270 272 268 265 266 270 269 266 269 274 276
220 220 221 223 226 231 237 244 250 256 260 263 266 267 269 269 268 267 266 265 265 262 258 256 255 254 255 256 256 258 262 265 265 265 265 267 271 269 267 270 273 276
212 214 216 220 224 229 237 244 249 256 260 264 268 268 267 267 266 267 268 267 268 267 265 263 259 255 253 253 253 252 257 264 264 263 262 264 269 271 269 267 267 272
211 214 217 220 226 230 237 246 251 258 263 265 268 267 267 268 268 270 270 269 268 266 264 262 259 256 253 254 255 252 253 258 261 261 262 262 265 268 269 266 265 272
216 219 221 223 228 233 241 249 254 259 263 264 265 266 266 267 267 267 266 265 265 263 262 261 260 258 255 254 255 254 255 258 257 258 262 263 264 265 266 266 267 273
220 222 224 227 230 235 241 248 253 258 262 263 264 265 265 265 265 265 266 266 268 267 266 264 262 260 257 254 252 250 253 255 254 256 260 261 263 264 263 263 263 267
225 225 226 229 233 238 245 252 257 262 264 265 266 265 266 268 267 267 270 271 272 271 269 267 265 263 259 256 251 247 247 249 250 254 256 258 260 261 262 260 258 261
229 228 228 230 236 243 250 257 262 265 267 266 267 266 265 268 268 268 272 274 272 270 268 266 266 264 261 258 255 252 251 250 251 252 254 256 259 260 261 259 257 261
232 230 229 233 240 247 254 261 264 266 268 266 265 266 266 267 270 272 275 277 275 272 269 267 268 270 272 270 266 262 258 252 250 252 254 258 261 263 261 258 258 262
233 229 231 235 242 249 257 263 265 265 265 264 262 263 265 267 273 276 277 278 279 277 276 277 278 280 280 278 274 269 262 253 246 248 251 255 259 262 262 260 259 255
232 229 232 237 244 251 258 262 263 262 260 259 257 259 263 267 273 275 277 279 279 279 280 280 282 284 280 274 270 268 264 258 251 249 252 255 258 260 260 259 254 246
233 231 234 239 245 252 258 261 260 258 255 254 254 257 260 264 267 267 268 269 269 269 270 271 272 275 273 268 265 266 268 268 264 260 259 261 262 263 264 262 254 248
235 233 237 241 246 251 255 258 256 252 249 248 249 251 253 256 256 251 249 250 254 255 257 262 266 270 274 274 271 270 270 270 271 271 269 269 268 268 269 267 261 254
235 235 238 242 247 251 253 253 250 246 244 244 245 244 243 242 236 226 226 231 240 249 253 260 270 274 280 280 275 272 268 266 267 269 269 270 270 270 269 268 265 262
235 235 239 243 248 250 251 248 243 240 240 239 237 232 226 222 214 207 208 212 221 237 243 251 265 274 279 281 281 280 278 274 272 271 270 272 272 272 272 270 269 268
234 236 239 243 247 249 247 242 237 235 235 231 223 215 208 205 198 189 187 187 196 217 231 242 257 268 277 286 291 295 294 291 289 287 285 284 282 281 280 278 276 274
234 236 240 244 247 246 241 236 232 229 225 217 207 201 198 192 183 176 174 173 181 201 224 244 260 271 284 295 301 303 304 304 304 304 303 301 300 298 296 294 291 288